Weather History for Fallon NAS, NV

Change the Weather History Date:

Monday, February 10, 2014

  Actual Average Record
Temperature  
Mean Temperature 46 °F -  
Max Temperature 55 °F 52 °F 72 °F (1951)
Min Temperature 36 °F 25 °F -19 °F (1933)
Degree Days  
Heating Degree Days 20    
Moisture  
Dew Point 36 °F    
Average Humidity 81    
Maximum Humidity 97    
Minimum Humidity 45    
Precipitation  
Precipitation 0.05 in - - ()
Sea Level Pressure  
Sea Level Pressure 30.10 in    
Wind  
Wind Speed 5 mph (SE)    
Max Wind Speed 14 mph    
Max Gust Speed -    
Visibility 10 miles    
Events Rain    
Averages and records for this station are not official NWS values.
T = Trace of Precipitation, MM = Missing Value Source: NWS Daily Summary

Daily Weather History Graph

Daily Weather History Graph

Search for Another Location

Airport:

Trip Planner

Search our weather history database for the weather conditions in past years. The results will help you decide how hot, cold, wet, or windy it might be!

Date:

Astronomy

Feb. 10, 2014 Rise Set
Actual Time 6:52 AM PST 5:25 PM PST
Civil Twilight 6:24 AM PST 5:53 PM PST
Nautical Twilight 5:53 AM PST 6:25 PM PST
Astronomical Twilight 5:22 AM PST 6:56 PM PST
Moon 1:59 PM PST (2/10) 3:49 AM PST (2/10)
Length of Visible Light 11h 28m
Length of Day
10h 33m
Waxing Gibbous, 85% of the Moon is Illuminated
Feb 10
Waxing Gibbous
Feb 14
Full
Feb 22
Last Quarter
Mar 1
New
Mar 8
First Quarter

Hourly Weather History & Observations

Time (PST) Temp. Windchill Dew Point Humidity Pressure Visibility Wind Dir Wind Speed Gust Speed Precip Events Conditions
12:56 AM 39.9 °F 35.8 °F 37.0 °F 89% 29.99 in 10.0 mi NNW 5.8 mph - N/A   Scattered Clouds
1:56 AM 37.0 °F 30.4 °F 35.1 °F 93% 30.00 in 10.0 mi NNW 9.2 mph - N/A   Partly Cloudy
2:38 AM 37.0 °F 34.5 °F 36.0 °F 96% 30.10 in 10.0 mi South 3.5 mph - N/A   Overcast
2:56 AM 36.0 °F 32.1 °F 35.1 °F 97% 30.02 in 10.0 mi South 4.6 mph - N/A   Overcast
3:04 AM 36.0 °F 33.3 °F 35.1 °F 97% 30.12 in 10.0 mi South 3.5 mph - N/A   Overcast
3:56 AM 39.0 °F 33.4 °F 37.0 °F 93% 30.04 in 6.0 mi WNW 8.1 mph - 0.01 in Rain Light Rain
4:19 AM 39.0 °F 33.4 °F 37.9 °F 96% 30.15 in 7.0 mi WNW 8.1 mph - 0.02 in Rain Light Rain
4:56 AM 39.0 °F 31.0 °F 37.9 °F 96% 30.02 in 6.0 mi South 13.8 mph - 0.04 in Rain Light Rain
5:56 AM 39.0 °F - 37.9 °F 96% 30.05 in 10.0 mi Calm Calm - 0.00 in   Overcast
6:15 AM 37.9 °F - 37.0 °F 97% 30.16 in 10.0 mi Calm Calm - N/A   Mostly Cloudy
6:56 AM 37.9 °F 35.5 °F 37.0 °F 97% 30.07 in 10.0 mi NNE 3.5 mph - N/A   Mostly Cloudy
7:56 AM 39.9 °F - 37.9 °F 93% 30.10 in 10.0 mi Calm Calm - 0.00 in   Mostly Cloudy
8:33 AM 42.1 °F - 37.9 °F 85% 30.23 in 10.0 mi Calm Calm - N/A   Mostly Cloudy
8:56 AM 42.1 °F - 37.9 °F 85% 30.12 in 10.0 mi Calm Calm - N/A   Overcast
9:56 AM 44.1 °F 42.5 °F 39.0 °F 82% 30.13 in 10.0 mi SSE 3.5 mph - N/A   Mostly Cloudy
10:56 AM 46.9 °F - 39.0 °F 74% 30.14 in 10.0 mi Calm Calm - N/A   Mostly Cloudy
11:56 AM 48.9 °F - 37.9 °F 66% 30.13 in 10.0 mi North 3.5 mph - N/A   Mostly Cloudy
12:56 PM 51.1 °F - 39.0 °F 63% 30.12 in 10.0 mi East 5.8 mph - N/A   Mostly Cloudy
1:56 PM 52.0 °F - 35.1 °F 53% 30.11 in 10.0 mi Calm Calm - N/A   Mostly Cloudy
2:56 PM 53.1 °F - 35.1 °F 50% 30.10 in 10.0 mi SE 3.5 mph - N/A   Mostly Cloudy
3:56 PM 55.0 °F - 34.0 °F 45% 30.09 in 10.0 mi NE 5.8 mph - N/A   Mostly Cloudy
4:56 PM 52.0 °F - 35.1 °F 53% 30.11 in 10.0 mi NE 4.6 mph - N/A   Mostly Cloudy
5:56 PM 46.0 °F 43.1 °F 36.0 °F 68% 30.11 in 10.0 mi NNE 5.8 mph - N/A   Scattered Clouds
6:56 PM 43.0 °F 39.5 °F 36.0 °F 76% 30.11 in 10.0 mi ESE 5.8 mph - N/A   Scattered Clouds
7:56 PM 39.9 °F 36.7 °F 35.1 °F 83% 30.11 in 10.0 mi Variable 4.6 mph - N/A   Partly Cloudy
8:56 PM 39.9 °F 36.7 °F 35.1 °F 83% 30.10 in 10.0 mi South 4.6 mph - N/A   Partly Cloudy
9:56 PM 39.0 °F 34.0 °F 34.0 °F 82% 30.10 in 10.0 mi South 6.9 mph - N/A   Mostly Cloudy
10:56 PM 37.9 °F 33.5 °F 33.1 °F 83% 30.09 in 10.0 mi South 5.8 mph - N/A   Clear
11:56 PM 37.0 °F - 33.1 °F 86% 30.10 in 10.0 mi Calm Calm - N/A   Clear